Location: Casteau
(50.5142°N, 4.0161°E)
Time: 02:57:39
(UTC+00:00)

Transit 2A - Pass Details

Date: 29 July 2021
Orbit: 594 x 964 km, 66.7° (Epoch: 27 September)

Event Time Altitude Azimuth Distance (km) Brightness Sun altitude
Rises 06:55:02 0° 209° (SSW) 2,833 8.7 24.5°
Reaches altitude 10° 06:57:13 10° 207° (SSW) 1,952 7.9 24.8°
Maximum altitude 07:01:33 71° 123° (ESE) 671 6.5 25.5°
Drops below altitude 10° 07:06:15 10° 40° (NE) 2,109 8.9 26.3°
Sets 07:08:41 0° 39° (NE) 3,083 9.6 26.7°
